Starlink 31546

operational
NORAD ID: 59470 Int'l Des: 2024-068 Owner: SPXS Country: US Constellation: starlink
LEOCIRCULAR

Starlink 31546について

説明を読み込み中...

リアルタイム位置

3D地球を読み込み中...

次回通過

高度履歴

Altitude vs Time

uPlot chart will show altitude changes over time

軌道要素

1 59470U 24068R 25304.61116337 .00008128 00000-0 30448-3 0 9998
2 59470 42.9993 39.8720 0001274 287.2571 72.8141 15.27588277 88829
Epoch: Oct 31, 2025 • Age: 7 hours

現在のステータス

高度 495.2 km
速度 7.62 km/s
衛星直下点 -42.46°S, 52.15°W
打ち上げ日 Apr 10, 2024
運用期間 1.5 years
タイプ internet

技術仕様

分類 Payload
質量 730.00 kg
乾燥質量 700.00 kg
総質量 730.00 kg
長さ 0.30 m
直径 4.10 m
スパン 29.00 m
形状 Box + pan
製造者 SPXS
バスタイプ Starlink V2M
フェーズステータス In Orbit
所有者/国 SPXS/US

大規模コンステレーション

Loading constellations...